Miscellaneous Local Product
Issued by NWS North Platte, NE

Home | Current Version | Previous Version | Text Only | Print | Product List | Glossary On
Versions: 1 2 3 4 5 6 7 8 9 10 11 12 13 14 15 16 17 18 19 20 21 22 23 24 25 26 27 28 29 30 31 32 33 34 35 36 37 38 39 40 41 42 43 44 45 46 47 48 49 50
000
AXUS43 KLBF 262110
MISLBF


WESTERN AND NORTH CENTRAL NEBRASKA HOURLY WEATHER ROUNDUP
NATIONAL WEATHER SERVICE NORTH PLATTE NE
400 PM CDT TUE MAY 26 2015

***STATIONS NOT REPORTING VARIABLES SUCH AS SKY/WEATHER OR
PRESSURE ARE PROVIDED BY THE NEBRASKA DEPARTMENT OF
ROADS...RAWS...AND APRS NETWORKS...AND ARE NOT UNDER
NATIONAL WEATHER SERVICE QUALITY CONTROL***

...OBSERVATIONS IN AND NEAR THE EASTERN PANHANDLE OF NEBRASKA...

CITY           SKY/WX    TMP DP  RH WIND       PRES   REMARKS
PINE RIDGE     CLOUDY    66  47  50 SE5       29.98S
CHADRON        MOSUNNY   70  50  49 MISG      29.97F
ALLIANCE       MOSUNNY   67  48  50 VRB6      29.99F
SIDNEY         MOSUNNY   65  50  58 VRB7      30.02F
WHITECLAY        N/A     67  45  45 SE8         N/A
BIG SPRINGS      N/A     68  53  57 NE8         N/A
$$

...OBSERVATIONS IN NORTH CENTRAL NEBRASKA...

CITY           SKY/WX    TMP DP  RH WIND       PRES   REMARKS
VALENTINE      PTSUNNY   72  46  39 N6        29.96S
THEDFORD       MOSUNNY   69  47  44 NW3       29.99S
AINSWORTH      PTSUNNY   70  49  46 NW10      29.96S
O`NEILL        CLOUDY    67  54  62 NW13G20   29.93S
ORD            PTSUNNY   68  48  48 N13       29.92S
BROKEN BOW     PTSUNNY   69  49  48 N8        29.96S
BROWNLEE         N/A     74  40  29 NW9         N/A
VALENTINE NWR    N/A     70  48  44 N7          N/A
SPRINGVIEW       N/A     73  51  46 NW7G14      N/A
HALSEY           N/A     66  47  51 CALM        N/A
BREWSTER         N/A     74  53  47 NW3         N/A
ROSE             N/A     71  54  55 W6          N/A
NEWPORT          N/A     71  52  49 W5          N/A
SARGENT          N/A     67  50  53 CALM        N/A
COMSTOCK         N/A     73  51  46 N8          N/A
EWING            N/A     66  56  70 N8          N/A
$$

...OBSERVATIONS IN SOUTHWEST NEBRASKA AND FAR NORTHEAST COLORADO...

CITY           SKY/WX    TMP DP  RH WIND       PRES   REMARKS
WRAY           FAIR      71  48  43 N7        30.00F
HOLYOKE        FAIR      73  54  49 NE8       30.00F
IMPERIAL       MOSUNNY   69  51  52 NW5       29.99F
OGALLALA       SUNNY     68  48  48 CALM      30.00S
NORTH PLATTE   MOSUNNY   67  47  48 NW9       29.98F
MCCOOK         MOSUNNY   73  49  42 NW10G23   29.97S
LEXINGTON      MOSUNNY   69  52  54 N14       29.97S
PAXTON           N/A     67  50  53 CALM        N/A
GOTHENBURG       N/A     69  44  39 N7          N/A
CALLAWAY         N/A     68  53  57 N8          N/A
$$

...NORTH PLATTE AREA...

CITY           SKY/WX    TMP DP  RH WIND       PRES   REMARKS
AIRPORT        MOSUNNY   67  47  48 NW9       29.98F
DOWNTOWN         N/A     69  47  45 N3          N/A
$$

...SOME WEATHER OBSERVATIONS FROM AROUND THE REGION...

CITY           SKY/WX    TMP DP  RH WIND       PRES   REMARKS
DENVER         PTSUNNY   70  40  33 E9        30.01F
LARAMIE        MOSUNNY   59  36  42 SW6       30.07S
CHEYENNE       PTSUNNY   61  45  55 SE8       30.05F
SCOTTSBLUFF    MOSUNNY   69  52  54 SE13G21   29.98F
RAPID CITY     PTSUNNY   66  50  56 S7        29.98R
PIERRE         PTSUNNY   76  51  41 W12       29.88F
WINNER         FAIR      75  46  35 NW9G18    29.91F
SIOUX FALLS    CLOUDY    66  56  70 N9        29.83S
OMAHA          CLOUDY    66  60  81 NW14      29.84R
GRAND ISLAND   MOSUNNY   70  52  52 NW15G24   29.92S
KANSAS CITY    MOSUNNY   76  60  57 W20G30    29.88R
WICHITA        MOSUNNY   80  57  45 W6        29.92F
HAYS           MOSUNNY   77  54  44 NW8       29.95S
LIBERAL        MOSUNNY   75  54  46 N6        30.00S
GOODLAND       CLOUDY    70  50  49 N10       30.00S
$$



USA.gov is the U.S. government's official web portal to all federal, state and local government web resources and services.